| time (UTC) | temp F | wind direction | speed MPH | gust MPH | rain 1hr in | rain 24hr in | rain mn in | humidity % | barometer mb |
| 20260506102202 | 47 | 186 | 0.0 | 0.0 | 0.00 | 0.00 | 0.00 | 64 | 1002.0 |
| 20260506101702 | 47 | 186 | 0.0 | 0.0 | 0.00 | 0.00 | 0.00 | 65 | 1002.0 |
| 20260506101203 | 47 | 186 | 0.0 | 0.0 | 0.00 | 0.00 | 0.00 | 67 | 1002.0 |
| 20260506100702 | 47 | 186 | 0.0 | 0.0 | 0.00 | 0.00 | 0.00 | 64 | 1002.0 |
| 20260506100203 | 47 | 186 | 0.0 | 0.0 | 0.00 | 0.00 | 0.00 | 64 | 1002.0 |
| 20260506095702 | 48 | 186 | 0.0 | 0.0 | 0.00 | 0.00 | 0.00 | 62 | 1002.0 |
| 20260506095203 | 48 | 186 | 0.0 | 0.0 | 0.00 | 0.00 | 0.00 | 62 | 1002.0 |
| 20260506094702 | 48 | 186 | 1.0 | 1.0 | 0.00 | 0.00 | 0.00 | 61 | 1002.0 |
| 20260506094202 | 48 | 186 | 0.0 | 0.0 | 0.00 | 0.00 | 0.00 | 63 | 1002.0 |
| 20260506093702 | 48 | 186 | 0.0 | 0.0 | 0.00 | 0.00 | 0.00 | 61 | 1002.0 |
| 20260506093206 | 48 | 186 | 0.0 | 0.0 | 0.00 | 0.00 | 0.00 | 61 | 1002.0 |
| 20260506092705 | 48 | 186 | 0.0 | 0.0 | 0.00 | 0.00 | 0.00 | 61 | 1002.0 |
| 20260506092203 | 48 | 186 | 0.0 | 0.0 | 0.00 | 0.00 | 0.00 | 60 | 1002.0 |
| 20260506091702 | 48 | 186 | 0.0 | 0.0 | 0.00 | 0.00 | 0.00 | 60 | 1002.0 |
| 20260506091202 | 48 | 186 | 0.0 | 0.0 | 0.00 | 0.00 | 0.00 | 59 | 1001.0 |
| 20260506090704 | 48 | 186 | 0.0 | 0.0 | 0.00 | 0.00 | 0.00 | 59 | 1001.0 |
| 20260506090203 | 48 | 186 | 0.0 | 0.0 | 0.00 | 0.00 | 0.00 | 58 | 1001.0 |
| 20260506085702 | 48 | 186 | 0.0 | 0.0 | 0.00 | 0.00 | 0.00 | 58 | 1001.0 |
| 20260506085203 | 48 | 186 | 2.0 | 2.0 | 0.00 | 0.00 | 0.00 | 58 | 1001.0 |
| 20260506084702 | 48 | 192 | 0.0 | 0.0 | 0.00 | 0.00 | 0.00 | 59 | 1001.0 |
| 20260506084202 | 48 | 192 | 0.0 | 0.0 | 0.00 | 0.00 | 0.00 | 59 | 1001.0 |
| 20260506083703 | 49 | 197 | 0.0 | 0.0 | 0.00 | 0.00 | 0.00 | 57 | 1001.0 |
| 20260506083202 | 49 | 204 | 1.0 | 1.0 | 0.00 | 0.00 | 0.00 | 58 | 1001.0 |
| 20260506082704 | 49 | 210 | 0.0 | 0.0 | 0.00 | 0.00 | 0.00 | 58 | 1001.0 |
| 20260506082202 | 49 | 190 | 0.0 | 0.0 | 0.00 | 0.00 | 0.00 | 57 | 1001.0 |
| 20260506081703 | 49 | 186 | 3.0 | 3.0 | 0.00 | 0.00 | 0.00 | 57 | 1001.0 |
| 20260506081202 | 49 | 282 | 1.0 | 1.0 | 0.00 | 0.00 | 0.00 | 57 | 1001.0 |
| 20260506080702 | 49 | 300 | 0.0 | 0.0 | 0.00 | 0.00 | 0.00 | 58 | 1001.0 |
| 20260506080203 | 49 | 336 | 0.0 | 0.0 | 0.00 | 0.00 | 0.00 | 58 | 1001.0 |
| 20260506073203 | 48 | 270 | 0.0 | 0.0 | 0.00 | 0.00 | 0.00 | 61 | 1001.0 |
| 20260506072703 | 49 | 270 | 0.0 | 0.0 | 0.00 | 0.00 | 0.00 | 61 | 1001.0 |
| 20260506072203 | 49 | 270 | 0.0 | 0.0 | 0.00 | 0.00 | 0.00 | 61 | 1001.0 |
| 20260506071702 | 49 | 270 | 0.0 | 0.0 | 0.00 | 0.00 | 0.00 | 59 | 1001.0 |
| 20260506071202 | 49 | 270 | 0.0 | 0.0 | 0.00 | 0.00 | 0.00 | 61 | 1001.0 |
| 20260506070704 | 49 | 269 | 0.0 | 0.0 | 0.00 | 0.00 | 0.00 | 60 | 1001.0 |
| 20260506070204 | 49 | 269 | 0.0 | 0.0 | 0.00 | 0.00 | 0.00 | 59 | 1001.0 |
| 20260506062204 | 49 | 276 | 0.0 | 0.0 | 0.00 | 0.00 | 0.00 | 59 | 1002.0 |
| 20260506061705 | 49 | 276 | 0.0 | 0.0 | 0.00 | 0.00 | 0.00 | 59 | 1002.0 |
| 20260506061204 | 50 | 278 | 2.0 | 2.0 | 0.00 | 0.00 | 0.00 | 59 | 1002.0 |
| 20260506060702 | 49 | 282 | 0.0 | 0.0 | 0.00 | 0.00 | 0.00 | 58 | 1002.0 |
| 20260506060202 | 49 | 282 | 1.0 | 1.0 | 0.00 | 0.00 | 0.00 | 57 | 1002.0 |
| 20260506051204 | 50 | 282 | 2.0 | 2.0 | 0.00 | 0.00 | 0.00 | 55 | 1002.0 |
| 20260506050705 | 50 | 282 | 0.0 | 0.0 | 0.00 | 0.00 | 0.00 | 56 | 1002.0 |
| 20260506050205 | 50 | 282 | 0.0 | 0.0 | 0.00 | 0.00 | 0.00 | 56 | 1002.0 |
| 20260506044703 | 51 | 282 | 0.0 | 0.0 | 0.00 | 0.00 | 0.00 | 54 | 1002.0 |
| 20260506044202 | 51 | 282 | 0.0 | 0.0 | 0.00 | 0.00 | 0.00 | 53 | 1001.0 |
| 20260506043703 | 51 | 282 | 0.0 | 0.0 | 0.00 | 0.00 | 0.00 | 53 | 1001.0 |
| 20260506043204 | 50 | 282 | 0.0 | 0.0 | 0.00 | 0.00 | 0.00 | 53 | 1001.0 |
| 20260506042704 | 50 | 282 | 0.0 | 0.0 | 0.00 | 0.00 | 0.00 | 53 | 1001.0 |
| 20260506042202 | 50 | 282 | 0.0 | 0.0 | 0.00 | 0.00 | 0.00 | 56 | 1001.0 |
| 20260506041702 | 50 | 282 | 0.0 | 0.0 | 0.00 | 0.00 | 0.00 | 56 | 1001.0 |
| 20260506041204 | 50 | 282 | 2.0 | 2.0 | 0.00 | 0.00 | 0.00 | 54 | 1001.0 |
| 20260506040702 | 50 | 282 | 0.0 | 0.0 | 0.00 | 0.00 | 0.00 | 53 | 1001.0 |
| 20260506040204 | 50 | 282 | 0.0 | 0.0 | 0.00 | 0.00 | 0.00 | 54 | 1001.0 |
| 20260506035702 | 50 | 282 | 0.0 | 0.0 | 0.00 | 0.00 | 0.00 | 53 | 1001.0 |
| 20260506035203 | 51 | 282 | 0.0 | 0.0 | 0.00 | 0.00 | 0.00 | 53 | 1001.0 |
| 20260506034703 | 51 | 282 | 0.0 | 0.0 | 0.00 | 0.00 | 0.00 | 52 | 1001.0 |
| 20260506034203 | 51 | 282 | 0.0 | 0.0 | 0.00 | 0.00 | 0.00 | 53 | 1001.0 |
| 20260506033702 | 51 | 282 | 0.0 | 0.0 | 0.00 | 0.00 | 0.00 | 51 | 1001.0 |
| 20260506033202 | 51 | 282 | 0.0 | 0.0 | 0.00 | 0.00 | 0.00 | 50 | 1001.0 |
| 20260506032705 | 51 | 282 | 0.0 | 0.0 | 0.00 | 0.00 | 0.00 | 52 | 1002.0 |
| 20260506032203 | 51 | 282 | 0.0 | 0.0 | 0.00 | 0.00 | 0.00 | 50 | 1002.0 |
| 20260506031703 | 51 | 282 | 0.0 | 0.0 | 0.00 | 0.00 | 0.00 | 50 | 1002.0 |
| 20260506031205 | 51 | 282 | 1.0 | 1.0 | 0.00 | 0.00 | 0.00 | 49 | 1002.0 |
| 20260506030705 | 51 | 282 | 0.0 | 0.0 | 0.00 | 0.00 | 0.00 | 49 | 1002.0 |
| 20260506030202 | 51 | 282 | 0.0 | 0.0 | 0.00 | 0.00 | 0.00 | 48 | 1002.0 |
| 20260506025705 | 51 | 282 | 0.0 | 0.0 | 0.00 | 0.00 | 0.00 | 49 | 1001.0 |
| 20260506025205 | 51 | 282 | 0.0 | 0.0 | 0.00 | 0.00 | 0.00 | 48 | 1001.0 |
| 20260506024703 | 51 | 282 | 0.0 | 0.0 | 0.00 | 0.00 | 0.00 | 47 | 1001.0 |
| 20260506024202 | 51 | 240 | 0.0 | 0.0 | 0.00 | 0.00 | 0.00 | 49 | 1001.0 |
| 20260506023703 | 52 | 240 | 0.0 | 0.0 | 0.00 | 0.00 | 0.00 | 48 | 1001.0 |
| 20260506023202 | 52 | 12 | 0.0 | 0.0 | 0.00 | 0.00 | 0.00 | 48 | 1001.0 |
| 20260506022704 | 52 | 12 | 1.0 | 1.0 | 0.00 | 0.00 | 0.00 | 47 | 1002.0 |
| 20260506022202 | 52 | 12 | 0.0 | 0.0 | 0.00 | 0.00 | 0.00 | 46 | 1002.0 |
| 20260506021702 | 52 | 282 | 1.0 | 1.0 | 0.00 | 0.00 | 0.00 | 46 | 1002.0 |
| 20260506021202 | 52 | 282 | 0.0 | 0.0 | 0.00 | 0.00 | 0.00 | 46 | 1001.0 |
| 20260506020702 | 52 | 282 | 0.0 | 0.0 | 0.00 | 0.00 | 0.00 | 45 | 1001.0 |
| 20260506020202 | 52 | 284 | 2.0 | 2.0 | 0.00 | 0.00 | 0.00 | 45 | 1001.0 |
| 20260506015702 | 52 | 234 | 0.0 | 0.0 | 0.00 | 0.00 | 0.00 | 45 | 1001.0 |
| 20260506015203 | 52 | 234 | 0.0 | 0.0 | 0.00 | 0.00 | 0.00 | 44 | 1001.0 |
| 20260506014702 | 52 | 252 | 0.0 | 0.0 | 0.00 | 0.00 | 0.00 | 44 | 1001.0 |
| 20260506014202 | 52 | 300 | 0.0 | 0.0 | 0.00 | 0.00 | 0.00 | 45 | 1001.0 |
| 20260506013702 | 52 | 300 | 1.0 | 1.0 | 0.00 | 0.00 | 0.00 | 45 | 1001.0 |
| 20260506013203 | 52 | 324 | 0.0 | 0.0 | 0.00 | 0.00 | 0.00 | 47 | 1001.0 |
| 20260506012702 | 53 | 324 | 1.0 | 1.0 | 0.00 | 0.00 | 0.00 | 45 | 1001.0 |
| 20260506012202 | 53 | 324 | 1.0 | 1.0 | 0.00 | 0.00 | 0.00 | 46 | 1001.0 |
| 20260506011702 | 53 | 246 | 0.0 | 0.0 | 0.00 | 0.00 | 0.00 | 44 | 1001.0 |
| 20260506011202 | 53 | 245 | 2.0 | 2.0 | 0.00 | 0.00 | 0.00 | 44 | 1001.0 |
| 20260506010703 | 53 | 252 | 2.0 | 2.0 | 0.00 | 0.00 | 0.00 | 44 | 1001.0 |
| 20260506010204 | 53 | 256 | 2.0 | 2.0 | 0.00 | 0.00 | 0.00 | 48 | 1001.0 |
| 20260506005702 | 53 | 243 | 2.0 | 2.0 | 0.00 | 0.00 | 0.00 | 49 | 1001.0 |
| 20260506005205 | 53 | 0 | 0.0 | 0.0 | 0.00 | 0.00 | 0.00 | 49 | 1001.0 |
| 20260506004702 | 53 | 257 | 2.0 | 2.0 | 0.00 | 0.00 | 0.00 | 48 | 1001.0 |
| 20260506004202 | 53 | 270 | 0.0 | 0.0 | 0.00 | 0.00 | 0.00 | 53 | 1001.0 |
| 20260506003702 | 53 | 282 | 2.0 | 2.0 | 0.00 | 0.00 | 0.00 | 52 | 1001.0 |
| 20260506003202 | 53 | 282 | 0.0 | 0.0 | 0.00 | 0.00 | 0.00 | 51 | 1001.0 |
| 20260506002703 | 53 | 282 | 0.0 | 0.0 | 0.00 | 0.00 | 0.00 | 51 | 1001.0 |
| 20260506002202 | 53 | 270 | 3.0 | 3.0 | 0.00 | 0.00 | 0.00 | 51 | 1001.0 |
| 20260506001702 | 54 | 229 | 0.0 | 0.0 | 0.00 | 0.00 | 0.00 | 50 | 1001.0 |
| 20260506001203 | 53 | 252 | 0.0 | 0.0 | 0.00 | 0.00 | 0.00 | 51 | 1001.0 |
| 20260506000704 | 54 | 252 | 2.0 | 2.0 | 0.00 | 0.00 | 0.00 | 50 | 1001.0 |
| 20260506000204 | 54 | 306 | 0.0 | 0.0 | 0.00 | 0.00 | 0.00 | 51 | 1001.0 |
| 20260505235702 | 54 | 202 | 3.0 | 3.0 | 0.00 | 0.00 | 0.00 | 51 | 1000.0 |
| 20260505235203 | 54 | 289 | 1.0 | 1.0 | 0.00 | 0.00 | 0.00 | 50 | 1000.0 |
| 20260505234702 | 54 | 198 | 0.0 | 0.0 | 0.00 | 0.00 | 0.00 | 50 | 1000.0 |
| 20260505234202 | 54 | 282 | 2.0 | 2.0 | 0.00 | 0.00 | 0.00 | 49 | 1000.0 |
| 20260505233702 | 54 | 246 | 0.0 | 0.0 | 0.00 | 0.00 | 0.00 | 52 | 1000.0 |
| 20260505233202 | 54 | 306 | 0.0 | 0.0 | 0.00 | 0.00 | 0.00 | 51 | 1000.0 |
| 20260505232702 | 54 | 258 | 0.0 | 0.0 | 0.00 | 0.00 | 0.00 | 51 | 1000.0 |
| 20260505232202 | 55 | 252 | 2.0 | 2.0 | 0.00 | 0.00 | 0.00 | 52 | 1000.0 |
| 20260505231704 | 55 | 252 | 3.0 | 3.0 | 0.00 | 0.00 | 0.00 | 54 | 1000.0 |
| 20260505231204 | 55 | 229 | 2.0 | 2.0 | 0.00 | 0.00 | 0.00 | 53 | 1000.0 |
| 20260505230705 | 55 | 354 | 2.0 | 2.0 | 0.00 | 0.00 | 0.00 | 54 | 1000.0 |
| 20260505230205 | 55 | 258 | 3.0 | 3.0 | 0.00 | 0.00 | 0.00 | 54 | 1000.0 |
| 20260505225702 | 55 | 252 | 0.0 | 0.0 | 0.00 | 0.00 | 0.00 | 57 | 1000.0 |
| 20260505225203 | 55 | 252 | 0.0 | 0.0 | 0.00 | 0.00 | 0.00 | 58 | 1000.0 |
| 20260505224704 | 55 | 246 | 2.0 | 2.0 | 0.00 | 0.00 | 0.00 | 61 | 1000.0 |
| 20260505224202 | 55 | 245 | 1.0 | 1.0 | 0.00 | 0.00 | 0.00 | 64 | 1000.0 |
| 20260505223702 | 55 | 240 | 0.0 | 0.0 | 0.00 | 0.00 | 0.00 | 64 | 1000.0 |
| 20260505223203 | 55 | 313 | 2.0 | 2.0 | 0.00 | 0.00 | 0.00 | 65 | 1000.0 |
| 20260505222702 | 56 | 246 | 0.0 | 0.0 | 0.00 | 0.00 | 0.00 | 64 | 1000.0 |
| 20260505222202 | 56 | 246 | 1.0 | 1.0 | 0.00 | 0.00 | 0.00 | 64 | 1000.0 |
| 20260505221702 | 56 | 246 | 1.0 | 1.0 | 0.00 | 0.00 | 0.00 | 64 | 1000.0 |
| 20260505221202 | 56 | 246 | 2.0 | 2.0 | 0.00 | 0.00 | 0.00 | 66 | 1000.0 |
| 20260505220703 | 56 | 256 | 2.0 | 2.0 | 0.00 | 0.00 | 0.00 | 64 | 1000.0 |
| 20260505220202 | 56 | 258 | 2.0 | 2.0 | 0.00 | 0.00 | 0.00 | 64 | 1000.0 |
| 20260505215702 | 56 | 300 | 2.0 | 2.0 | 0.00 | 0.00 | 0.00 | 64 | 1000.0 |
| 20260505215202 | 56 | 257 | 3.0 | 3.0 | 0.00 | 0.00 | 0.00 | 63 | 1000.0 |
| 20260505214703 | 56 | 276 | 1.0 | 1.0 | 0.00 | 0.00 | 0.00 | 65 | 1000.0 |
| 20260505214202 | 56 | 228 | 0.0 | 0.0 | 0.00 | 0.00 | 0.00 | 66 | 1000.0 |
| 20260505213702 | 56 | 238 | 2.0 | 2.0 | 0.00 | 0.00 | 0.00 | 65 | 1000.0 |
| 20260505213202 | 56 | 261 | 0.0 | 0.0 | 0.00 | 0.00 | 0.00 | 66 | 1000.0 |
| 20260505212702 | 56 | 244 | 2.0 | 2.0 | 0.00 | 0.00 | 0.00 | 65 | 1000.0 |
| 20260505212204 | 56 | 276 | 0.0 | 0.0 | 0.00 | 0.00 | 0.00 | 67 | 1000.0 |
| 20260505211703 | 56 | 276 | 2.0 | 2.0 | 0.00 | 0.00 | 0.00 | 65 | 1000.0 |
| 20260505211203 | 56 | 282 | 2.0 | 2.0 | 0.00 | 0.00 | 0.00 | 67 | 1000.0 |
| 20260505210704 | 56 | 243 | 2.0 | 2.0 | 0.00 | 0.00 | 0.00 | 66 | 1000.0 |
| 20260505210202 | 56 | 246 | 3.0 | 3.0 | 0.00 | 0.00 | 0.00 | 66 | 1000.0 |
| 20260505205702 | 56 | 256 | 2.0 | 2.0 | 0.00 | 0.00 | 0.00 | 67 | 1000.0 |
| 20260505205203 | 56 | 294 | 0.0 | 0.0 | 0.00 | 0.00 | 0.00 | 67 | 1000.0 |
| 20260505204702 | 55 | 204 | 2.0 | 2.0 | 0.00 | 0.00 | 0.00 | 69 | 1000.0 |
| 20260505204203 | 55 | 216 | 2.0 | 2.0 | 0.00 | 0.00 | 0.00 | 69 | 1000.0 |
| 20260505203702 | 55 | 217 | 2.0 | 2.0 | 0.00 | 0.00 | 0.00 | 69 | 1000.0 |
| 20260505203202 | 55 | 264 | 4.0 | 4.0 | 0.00 | 0.00 | 0.00 | 69 | 1000.0 |
| 20260505202702 | 56 | 252 | 0.0 | 0.0 | 0.00 | 0.00 | 0.00 | 70 | 1000.0 |
| 20260505202202 | 55 | 252 | 1.0 | 1.0 | 0.00 | 0.00 | 0.00 | 69 | 1000.0 |
| 20260505201703 | 55 | 264 | 4.0 | 4.0 | 0.00 | 0.00 | 0.00 | 69 | 1000.0 |
| 20260505201203 | 55 | 245 | 4.0 | 4.0 | 0.00 | 0.00 | 0.00 | 69 | 1000.0 |
| 20260505200704 | 55 | 228 | 2.0 | 2.0 | 0.00 | 0.00 | 0.00 | 69 | 1000.0 |
| 20260505200202 | 55 | 240 | 3.0 | 3.0 | 0.00 | 0.00 | 0.00 | 68 | 1000.0 |
| 20260505195703 | 55 | 270 | 2.0 | 2.0 | 0.00 | 0.00 | 0.00 | 70 | 1000.0 |
| 20260505195202 | 55 | 252 | 2.0 | 2.0 | 0.00 | 0.00 | 0.00 | 70 | 1000.0 |
| 20260505194703 | 54 | 250 | 3.0 | 3.0 | 0.00 | 0.00 | 0.00 | 69 | 1000.0 |
| 20260505194203 | 55 | 252 | 1.0 | 1.0 | 0.00 | 0.00 | 0.00 | 69 | 1001.0 |
| 20260505193704 | 55 | 262 | 2.0 | 2.0 | 0.00 | 0.00 | 0.00 | 69 | 1001.0 |
| 20260505193202 | 54 | 246 | 2.0 | 2.0 | 0.00 | 0.00 | 0.00 | 70 | 1001.0 |
| 20260505192702 | 54 | 262 | 2.0 | 2.0 | 0.00 | 0.00 | 0.00 | 70 | 1001.0 |
| 20260505192202 | 54 | 270 | 0.0 | 0.0 | 0.00 | 0.00 | 0.00 | 70 | 1001.0 |
| 20260505191702 | 54 | 270 | 0.0 | 0.0 | 0.00 | 0.00 | 0.00 | 71 | 1001.0 |
| 20260505191202 | 54 | 245 | 0.0 | 0.0 | 0.00 | 0.00 | 0.00 | 69 | 1001.0 |
| 20260505190703 | 54 | 234 | 2.0 | 2.0 | 0.00 | 0.00 | 0.00 | 70 | 1001.0 |
| 20260505190203 | 54 | 255 | 2.0 | 2.0 | 0.00 | 0.00 | 0.00 | 72 | 1001.0 |
| 20260505185702 | 54 | 250 | 2.0 | 2.0 | 0.00 | 0.00 | 0.00 | 71 | 1001.0 |
| 20260505185202 | 54 | 214 | 3.0 | 3.0 | 0.00 | 0.00 | 0.00 | 70 | 1001.0 |
| 20260505184702 | 55 | 246 | 3.0 | 3.0 | 0.00 | 0.00 | 0.00 | 72 | 1001.0 |
| 20260505184203 | 54 | 252 | 3.0 | 3.0 | 0.00 | 0.00 | 0.00 | 72 | 1000.0 |
| 20260505183702 | 54 | 240 | 2.0 | 2.0 | 0.00 | 0.00 | 0.00 | 70 | 1000.0 |
| 20260505183203 | 54 | 238 | 2.0 | 2.0 | 0.00 | 0.00 | 0.00 | 70 | 1000.0 |
| 20260505182705 | 54 | 264 | 3.0 | 3.0 | 0.00 | 0.00 | 0.00 | 72 | 1000.0 |
| 20260505182202 | 54 | 240 | 2.0 | 2.0 | 0.00 | 0.00 | 0.00 | 71 | 1000.0 |
| 20260505181705 | 54 | 218 | 3.0 | 3.0 | 0.00 | 0.00 | 0.00 | 72 | 1000.0 |
| 20260505181202 | 54 | 221 | 2.0 | 2.0 | 0.00 | 0.00 | 0.00 | 74 | 1000.0 |
| 20260505180702 | 54 | 222 | 3.0 | 4.0 | 0.00 | 0.00 | 0.00 | 73 | 1000.0 |
| 20260505180202 | 53 | 246 | 3.0 | 3.0 | 0.00 | 0.00 | 0.00 | 74 | 1000.0 |
| 20260505175704 | 53 | 288 | 2.0 | 2.0 | 0.00 | 0.00 | 0.00 | 76 | 1000.0 |
| 20260505175203 | 52 | 250 | 4.0 | 4.0 | 0.00 | 0.00 | 0.00 | 76 | 1000.0 |
| 20260505174702 | 52 | 258 | 2.0 | 2.0 | 0.00 | 0.00 | 0.00 | 78 | 1000.0 |
| 20260505174202 | 52 | 276 | 3.0 | 3.0 | 0.00 | 0.00 | 0.00 | 80 | 1000.0 |
| 20260505173702 | 52 | 252 | 2.0 | 2.0 | 0.00 | 0.00 | 0.00 | 82 | 1000.0 |
| 20260505173202 | 52 | 243 | 1.0 | 1.0 | 0.00 | 0.00 | 0.00 | 81 | 1000.0 |
| 20260505172703 | 52 | 256 | 2.0 | 2.0 | 0.00 | 0.00 | 0.00 | 78 | 1000.0 |
| 20260505172204 | 53 | 214 | 3.0 | 3.0 | 0.00 | 0.00 | 0.00 | 79 | 1000.0 |
| 20260505171702 | 53 | 234 | 3.0 | 4.0 | 0.00 | 0.00 | 0.00 | 78 | 1000.0 |
| 20260505171203 | 53 | 296 | 2.0 | 2.0 | 0.00 | 0.00 | 0.00 | 79 | 1000.0 |
| 20260505170702 | 53 | 262 | 3.0 | 3.0 | 0.00 | 0.00 | 0.00 | 77 | 1000.0 |
| 20260505170202 | 53 | 252 | 2.0 | 2.0 | 0.00 | 0.00 | 0.00 | 77 | 1000.0 |
| 20260505165702 | 53 | 256 | 2.0 | 2.0 | 0.00 | 0.00 | 0.00 | 78 | 1000.0 |
| 20260505165203 | 53 | 249 | 2.0 | 2.0 | 0.00 | 0.00 | 0.00 | 79 | 1000.0 |
| 20260505164703 | 54 | 312 | 2.0 | 2.0 | 0.00 | 0.00 | 0.00 | 77 | 1000.0 |
| 20260505164202 | 54 | 318 | 2.0 | 2.0 | 0.00 | 0.00 | 0.00 | 73 | 1000.0 |
| 20260505163702 | 54 | 42 | 2.0 | 2.0 | 0.00 | 0.00 | 0.00 | 71 | 1000.0 |
| 20260505163203 | 54 | 246 | 4.0 | 4.0 | 0.00 | 0.00 | 0.00 | 70 | 1000.0 |
| 20260505162703 | 55 | 234 | 2.0 | 2.0 | 0.00 | 0.00 | 0.00 | 70 | 1000.0 |
| 20260505162203 | 55 | 268 | 2.0 | 2.0 | 0.00 | 0.00 | 0.00 | 69 | 1000.0 |
| 20260505161702 | 56 | 264 | 2.0 | 2.0 | 0.00 | 0.00 | 0.00 | 65 | 1000.0 |
| 20260505161203 | 56 | 354 | 2.0 | 2.0 | 0.00 | 0.00 | 0.00 | 64 | 1000.0 |
| 20260505160704 | 57 | 246 | 3.0 | 4.0 | 0.00 | 0.00 | 0.00 | 60 | 1000.0 |
| 20260505160202 | 58 | 249 | 2.0 | 2.0 | 0.00 | 0.00 | 0.00 | 57 | 1000.0 |
| 20260505153202 | 58 | 242 | 3.0 | 3.0 | 0.00 | 0.00 | 0.00 | 53 | 999.0 |
| 20260505152703 | 58 | 30 | 1.0 | 1.0 | 0.00 | 0.00 | 0.00 | 54 | 999.0 |
| 20260505152202 | 59 | 264 | 1.0 | 1.0 | 0.00 | 0.00 | 0.00 | 54 | 999.0 |
| 20260505151702 | 59 | 234 | 4.0 | 4.0 | 0.00 | 0.00 | 0.00 | 52 | 999.0 |
| 20260505151203 | 59 | 176 | 3.0 | 3.0 | 0.00 | 0.00 | 0.00 | 53 | 999.0 |
| 20260505150705 | 59 | 234 | 3.0 | 3.0 | 0.00 | 0.00 | 0.00 | 51 | 999.0 |
| 20260505150203 | 60 | 158 | 2.0 | 2.0 | 0.00 | 0.00 | 0.00 | 52 | 999.0 |
| 20260505140203 | 62 | 335 | 2.0 | 2.0 | 0.00 | 0.00 | 0.00 | 59 | 997.0 |
| 20260505130203 | 61 | 294 | 2.0 | 2.0 | 0.00 | 0.00 | 0.00 | 74 | 996.0 |
| 20260505124704 | 61 | 228 | 4.0 | 5.0 | 0.00 | 0.00 | 0.00 | 78 | 996.0 |
| 20260505124202 | 60 | 216 | 2.0 | 2.0 | 0.00 | 0.00 | 0.00 | 79 | 996.0 |
| 20260505123703 | 60 | 174 | 3.0 | 3.0 | 0.00 | 0.00 | 0.00 | 81 | 996.0 |
| 20260505123203 | 60 | 196 | 2.0 | 2.0 | 0.00 | 0.00 | 0.00 | 81 | 996.0 |
| 20260505122702 | 60 | 186 | 6.0 | 6.0 | 0.00 | 0.00 | 0.00 | 83 | 997.0 |
| 20260505122202 | 59 | 186 | 3.0 | 3.0 | 0.00 | 0.00 | 0.00 | 84 | 997.0 |
| 20260505121702 | 59 | 186 | 4.0 | 4.0 | 0.00 | 0.00 | 0.00 | 84 | 997.0 |
| 20260505121202 | 59 | 186 | 7.0 | 7.0 | 0.00 | 0.00 | 0.00 | 85 | 997.0 |
| 20260505120703 | 59 | 186 | 2.0 | 2.0 | 0.00 | 0.00 | 0.00 | 85 | 997.0 |
| 20260505120202 | 58 | 186 | 2.0 | 2.0 | 0.00 | 0.00 | 0.00 | 86 | 997.0 |
| 20260505115704 | 58 | 186 | 2.0 | 2.0 | 0.00 | 0.00 | 0.00 | 86 | 996.0 |
| 20260505115202 | 58 | 186 | 4.0 | 4.0 | 0.00 | 0.00 | 0.00 | 86 | 996.0 |
| 20260505114703 | 58 | 186 | 0.0 | 0.0 | 0.00 | 0.00 | 0.00 | 87 | 996.0 |
| 20260505114203 | 58 | 186 | 3.0 | 3.0 | 0.00 | 0.00 | 0.00 | 86 | 996.0 |
| 20260505113703 | 58 | 186 | 2.0 | 2.0 | 0.00 | 0.00 | 0.00 | 86 | 996.0 |
| 20260505113202 | 58 | 186 | 1.0 | 1.0 | 0.00 | 0.00 | 0.00 | 85 | 996.0 |
| 20260505112702 | 58 | 186 | 2.0 | 2.0 | 0.00 | 0.00 | 0.00 | 86 | 995.0 |
| 20260505112202 | 58 | 186 | 2.0 | 2.0 | 0.00 | 0.00 | 0.00 | 86 | 995.0 |